Weather in Bilovodsk

Ukraine / Luhansk Region     49˚12′24″N   39˚34′36″E
temp.,
°C
wind,
m/s
gust,
m/s
humid.,
%
clouds,
%
prec.,
mm/h
press.,
hPa
HPBL,
m
3 december, thu
thu323:00−4˚ese6127681 0.0 1034464
02:00−4˚ese7117686 0.0 1034434
05:00−4˚ese7116197 0.0 1033441
08:00−4˚ese7116297 0.0 1034436
11:00−2˚ese7116097 0.0 1034509
14:00−1˚ese7116294 0.0 1032545
17:00−2˚ese7136399 0.0 1033552
20:00−3˚ese7125698 0.0 1033537
4 december, fri
fri423:00−3˚ese6115698 0.0 1033510
02:00−4˚ese6106097 0.0 1033492
05:00−5˚ese6106852 0.0 1032412
08:00−4˚ese6107076 0.0 1034393
11:00−3˚ese6973100 0.0 1033439
14:00−2˚ese61073100 0.0 1033489
17:00−2˚ese61071100 0.0 1034528
20:00−2˚ese61155100 0.0 1034508
5 december, sat
sat523:00−3˚ese61055100 0.0 1034446
02:00−5˚ese6106088 0.0 1035413
05:00−5˚e611612 0.0 1035372
08:00−6˚ese611571 0.0 1036374
11:00−3˚e610410 0.0 1036436
14:00−2˚e610420 0.0 1036459
17:00−4˚e512570 0.0 1036361
20:00−5˚e510510 0.0 1037345
6 december, sun
sun623:00−6˚e510530 0.0 1037325
02:00−7˚e510600 0.0 1038321
05:00−7˚e510640 0.0 1038327
08:00−8˚e511630 0.0 1038363
11:00−4˚e69600 0.0 1038444
14:00−4˚ene610630 0.0 1037488
17:00−6˚e611690 0.0 1038497
20:00−6˚e611620 0.0 1039442
7 december, mon
mon723:00−7˚e611710 0.0 1039437
02:00−8˚e611720 0.0 1039405
05:00−8˚e611720 0.0 1039369
08:00−8˚e611680 0.0 1040397
11:00−5˚e610510 0.0 1040490
14:00−4˚e610500 0.0 1038490
17:00−6˚e511660 0.0 1039368
20:00−6˚e510660 0.0 1039346